This is the latest recevied weather packets stored in our database for station/object WC4PEM-9. If no packets are shown the sender has not sent any weather packets the latest 1 day(s).
| Time | Temp. | Humidity | Pressure | Rain* | Wind** | Luminosity | Snow |
|---|---|---|---|---|---|---|---|
| 1778021607 | 28.33° C | 58% | 1013.9 hPa | 0 mm | - | - | - |
| 1778021007 | 28.89° C | 56% | 1013.8 hPa | 0 mm | - | - | - |
| 1778020707 | 28.89° C | 56% | 1013.9 hPa | 0 mm | - | - | - |
| 1778020407 | 28.89° C | 54% | 1013.8 hPa | 0 mm | - | - | - |
| 1778020107 | 28.89° C | 55% | 1013.8 hPa | 0 mm | - | - | - |
| 1778019807 | 29.44° C | 54% | 1013.8 hPa | 0 mm | - | - | - |
| 1778019507 | 29.44° C | 53% | 1013.5 hPa | 0 mm | - | - | - |
| 1778019207 | 30° C | 52% | 1013.7 hPa | 0 mm | - | - | - |
| 1778018907 | 30° C | 51% | 1013.8 hPa | 0 mm | - | - | - |
| 1778018607 | 30.56° C | 48% | 1013.8 hPa | 0 mm | - | - | - |
| 1778018307 | 30.56° C | 48% | 1013.7 hPa | 0 mm | - | - | - |
| 1778018007 | 30.56° C | 48% | 1013.8 hPa | 0 mm | - | - | - |
| 1778017407 | 30.56° C | 47% | 1013.8 hPa | 0 mm | - | - | - |
| 1778016807 | 30.56° C | 50% | 1013.5 hPa | 0 mm | - | - | - |
| 1778016207 | 30.56° C | 49% | 1013.7 hPa | 0 mm | - | - | - |
| 1778015907 | 30.56° C | 48% | 1013.7 hPa | 0 mm | - | - | - |
| 1778015607 | 30.56° C | 47% | 1013.4 hPa | 0 mm | - | - | - |
| 1778011707 | 30° C | 50% | 1013.9 hPa | 0 mm | - | - | - |
| 1778008794 | 28.89° C | 46% | 1014.5 hPa | 0 mm | - | - | - |
| 1778008202 | 30° C | 47% | 1014.7 hPa | 0 mm | - | - | - |
| 1778007902 | 30° C | 51% | 1014.6 hPa | 0 mm | - | - | - |
| 1778002829 | 29.44° C | 51% | 1015.7 hPa | 0 mm | - | - | - |
| 1778002206 | 29.44° C | 52% | 1015.6 hPa | 0 mm | - | - | - |
| 1778001025 | 28.89° C | 54% | 1015.9 hPa | 0 mm | - | - | - |
* Rain latest hour (hover to see other rain measurements)
** Current wind speed in m/s (hover to see current wind gust speed)